When you browse on this site, cookies collect data to enhance your experience and personalize the content and advertising you see.
Visit our Privacy Policy to learn more. By continuing to use the site, you agree to this use of cookies and data.
  • în România
  • Lista ţărilor
  • Pe 7 zile
  • Temperatura apei
  • Hartă satelitară
  • Meteo pe hartă
  • Widget-uri
  • user-avatar
    Intrare

    Meteo pe oră la Kameevo

    Astăzi, 24 Iulie, Miercuri

    Timp Temperatura Precipitaţii Vânt Presiune Umiditate
    00:00 +15°C° 0 mm 2 m/s 749 mmHg 95%
    01:00 +14°C° 0 mm 2 m/s 749 mmHg 96%
    02:00 +14°C° 0 mm 2 m/s 749 mmHg 96%
    03:00 +14°C° 0 mm 2 m/s 749 mmHg 96%
    04:00 +13°C° 0 mm 1 m/s 750 mmHg 96%
    05:00 +14°C° 0 mm 2 m/s 750 mmHg 95%
    06:00 +16°C° 0 mm 2 m/s 750 mmHg 94%
    07:00 +17°C° 0 mm 2 m/s 750 mmHg 93%
    08:00 +18°C° 0 mm 2 m/s 750 mmHg 87%
    09:00 +20°C° 0 mm 2 m/s 751 mmHg 81%
    10:00 +21°C° 0 mm 2 m/s 751 mmHg 75%
    11:00 +23°C° 0.3 mm 2 m/s 751 mmHg 72%
    12:00 +24°C° 0.3 mm 2 m/s 751 mmHg 69%
    13:00 +25°C° 0.3 mm 2 m/s 751 mmHg 66%
    14:00 +25°C° 0.1 mm 2 m/s 751 mmHg 66%
    15:00 +25°C° 0.1 mm 2 m/s 751 mmHg 66%
    16:00 +25°C° 0.1 mm 2 m/s 751 mmHg 66%
    17:00 +24°C° 0.1 mm 2 m/s 751 mmHg 70%
    18:00 +24°C° 0.1 mm 1 m/s 751 mmHg 74%
    19:00 +23°C° 0.1 mm 1 m/s 751 mmHg 79%
    20:00 +22°C° 0 mm 1 m/s 751 mmHg 82%
    21:00 +20°C° 0 mm 1 m/s 752 mmHg 85%
    22:00 +18°C° 0 mm 1 m/s 752 mmHg 88%
    23:00 +18°C° 0 mm 1 m/s 752 mmHg 89%

    Mâine, 25 Iulie, Joi

    Timp Temperatura Precipitaţii Vânt Presiune Umiditate
    00:00 +18°C° 0 mm 1 m/s 752 mmHg 89%
    01:00 +16°C° 0 mm 1 m/s 752 mmHg 89%
    02:00 +16°C° 0 mm 1 m/s 752 mmHg 89%
    03:00 +15°C° 0 mm 1 m/s 752 mmHg 89%
    04:00 +15°C° 0 mm 1 m/s 752 mmHg 89%
    05:00 +16°C° 0 mm 1 m/s 753 mmHg 85%
    06:00 +18°C° 0 mm 1 m/s 753 mmHg 82%
    07:00 +20°C° 0 mm 1 m/s 753 mmHg 79%
    08:00 +21°C° 0 mm 1 m/s 753 mmHg 73%
    09:00 +23°C° 0 mm 1 m/s 753 mmHg 68%
    10:00 +25°C° 0 mm 2 m/s 753 mmHg 62%
    11:00 +26°C° 0 mm 2 m/s 753 mmHg 59%
    12:00 +27°C° 0 mm 2 m/s 753 mmHg 55%
    13:00 +27°C° 0 mm 2 m/s 753 mmHg 51%
    14:00 +27°C° 0 mm 2 m/s 753 mmHg 53%
    15:00 +27°C° 0 mm 2 m/s 753 mmHg 55%
    16:00 +27°C° 0 mm 2 m/s 753 mmHg 57%
    17:00 +26°C° 0 mm 2 m/s 753 mmHg 63%
    18:00 +25°C° 0 mm 2 m/s 753 mmHg 69%
    19:00 +24°C° 0 mm 2 m/s 753 mmHg 74%
    20:00 +23°C° 0 mm 2 m/s 753 mmHg 77%
    21:00 +20°C° 0 mm 2 m/s 753 mmHg 81%
    22:00 +18°C° 0 mm 2 m/s 753 mmHg 84%
    23:00 +18°C° 0 mm 2 m/s 753 mmHg 84%

    Poimâine, 26 Iulie, Vineri

    Timp Temperatura Precipitaţii Vânt Presiune Umiditate
    00:00 +18°C° 0 mm 2 m/s 753 mmHg 85%
    01:00 +17°C° 0 mm 2 m/s 753 mmHg 85%
    02:00 +18°C° 0 mm 1 m/s 753 mmHg 86%
    03:00 +16°C° 0 mm 1 m/s 753 mmHg 86%
    04:00 +16°C° 0 mm 1 m/s 753 mmHg 86%
    05:00 +18°C° 0 mm 1 m/s 753 mmHg 82%
    06:00 +19°C° 0 mm 1 m/s 753 mmHg 78%
    07:00 +20°C° 0 mm 2 m/s 753 mmHg 73%
    08:00 +21°C° 0 mm 2 m/s 753 mmHg 68%
    09:00 +24°C° 0 mm 2 m/s 753 mmHg 62%
    10:00 +25°C° 0 mm 3 m/s 753 mmHg 57%
    11:00 +26°C° 0 mm 3 m/s 753 mmHg 55%
    12:00 +27°C° 0 mm 3 m/s 753 mmHg 54%
    13:00 +27°C° 0 mm 3 m/s 752 mmHg 52%
    14:00 +27°C° 0 mm 3 m/s 752 mmHg 53%
    15:00 +27°C° 0 mm 3 m/s 751 mmHg 54%
    16:00 +28°C° 0 mm 3 m/s 751 mmHg 54%
    17:00 +26°C° 0 mm 2 m/s 751 mmHg 61%
    18:00 +25°C° 0 mm 2 m/s 751 mmHg 68%
    19:00 +24°C° 0 mm 2 m/s 751 mmHg 75%
    20:00 +22°C° 0 mm 1 m/s 750 mmHg 79%
    21:00 +21°C° 0 mm 1 m/s 750 mmHg 82%
    22:00 +19°C° 0 mm 1 m/s 750 mmHg 85%
    23:00 +18°C° 0 mm 1 m/s 750 mmHg 83%

    27 Iulie, Sâmbătă

    Timp Temperatura Precipitaţii Vânt Presiune Umiditate
    00:00 +18°C° 0 mm 1 m/s 750 mmHg 80%
    01:00 +16°C° 0 mm 1 m/s 750 mmHg 78%
    02:00 +15°C° 0 mm 1 m/s 749 mmHg 78%
    03:00 +15°C° 0 mm 1 m/s 749 mmHg 78%
    04:00 +14°C° 0 mm 1 m/s 749 mmHg 78%
    05:00 +16°C° 0 mm 1 m/s 749 mmHg 77%
    06:00 +18°C° 0 mm 1 m/s 749 mmHg 76%
    07:00 +20°C° 0 mm 1 m/s 748 mmHg 76%
    08:00 +21°C° 0 mm 1 m/s 748 mmHg 72%
    09:00 +23°C° 0 mm 1 m/s 748 mmHg 68%
    10:00 +24°C° 0 mm 1 m/s 747 mmHg 65%
    11:00 +25°C° 0 mm 1 m/s 747 mmHg 62%
    12:00 +26°C° 0 mm 1 m/s 746 mmHg 60%
    13:00 +26°C° 0 mm 1 m/s 746 mmHg 57%
    14:00 +26°C° 0 mm 1 m/s 745 mmHg 57%
    15:00 +26°C° 0 mm 1 m/s 745 mmHg 57%
    16:00 +26°C° 0 mm 1 m/s 745 mmHg 57%
    17:00 +26°C° 0.1 mm 1 m/s 744 mmHg 63%
    18:00 +25°C° 0.1 mm 1 m/s 744 mmHg 70%
    19:00 +24°C° 0.1 mm 1 m/s 743 mmHg 76%
    20:00 +22°C° 0 mm 1 m/s 743 mmHg 79%
    21:00 +21°C° 0 mm 1 m/s 743 mmHg 82%
    22:00 +17°C° 0 mm 0 m/s 742 mmHg 85%
    23:00 +17°C° 0 mm 0 m/s 742 mmHg 86%

    28 Iulie, Duminică

    Timp Temperatura Precipitaţii Vânt Presiune Umiditate
    00:00 +16°C° 0 mm 0 m/s 741 mmHg 87%
    01:00 +16°C° 0 mm 0 m/s 741 mmHg 88%
    02:00 +18°C° 0 mm 1 m/s 740 mmHg 88%
    03:00 +16°C° 0 mm 1 m/s 740 mmHg 89%
    04:00 +16°C° 0 mm 1 m/s 739 mmHg 90%
    05:00 +18°C° 0 mm 1 m/s 739 mmHg 87%
    06:00 +19°C° 0 mm 1 m/s 738 mmHg 85%
    07:00 +20°C° 0 mm 1 m/s 738 mmHg 83%
    08:00 +21°C° 0.3 mm 2 m/s 737 mmHg 80%
    09:00 +23°C° 0.3 mm 2 m/s 737 mmHg 78%
    10:00 +24°C° 0.3 mm 3 m/s 736 mmHg 75%
    11:00 +23°C° 0.9 mm 4 m/s 736 mmHg 78%
    12:00 +22°C° 0.9 mm 5 m/s 736 mmHg 81%
    13:00 +21°C° 0.9 mm 5 m/s 736 mmHg 84%
    14:00 +19°C° 0.5 mm 5 m/s 736 mmHg 87%
    15:00 +16°C° 0.5 mm 5 m/s 736 mmHg 90%
    16:00 +14°C° 0.5 mm 5 m/s 736 mmHg 93%
    17:00 +14°C° 0.1 mm 5 m/s 736 mmHg 92%
    18:00 +14°C° 0.1 mm 5 m/s 736 mmHg 91%
    19:00 +13°C° 0.1 mm 5 m/s 736 mmHg 90%
    20:00 +13°C° 0 mm 5 m/s 736 mmHg 88%
    21:00 +12°C° 0 mm 4 m/s 736 mmHg 86%
    22:00 +12°C° 0 mm 4 m/s 736 mmHg 83%
    23:00 +11°C° 0 mm 4 m/s 736 mmHg 82%

    29 Iulie, Luni

    Timp Temperatura Precipitaţii Vânt Presiune Umiditate
    00:00 +11°C° 0 mm 4 m/s 736 mmHg 81%
    01:00 +10°C° 0 mm 4 m/s 736 mmHg 79%
    02:00 +8°C° 0 mm 4 m/s 736 mmHg 84%
    03:00 +7°C° 0 mm 3 m/s 736 mmHg 88%
    04:00 +5°C° 0 mm 3 m/s 736 mmHg 93%
    05:00 +7°C° 0 mm 3 m/s 736 mmHg 89%
    06:00 +7°C° 0 mm 3 m/s 736 mmHg 86%
    07:00 +7°C° 0 mm 4 m/s 736 mmHg 83%
    08:00 +8°C° 0 mm 4 m/s 736 mmHg 78%
    09:00 +10°C° 0 mm 4 m/s 736 mmHg 74%
    10:00 +11°C° 0 mm 4 m/s 736 mmHg 69%
    11:00 +11°C° 0.1 mm 4 m/s 736 mmHg 69%
    12:00 +11°C° 0.1 mm 4 m/s 736 mmHg 68%
    13:00 +11°C° 0.1 mm 4 m/s 736 mmHg 68%
    14:00 +11°C° 0.2 mm 4 m/s 737 mmHg 69%
    15:00 +11°C° 0.2 mm 4 m/s 737 mmHg 71%
    16:00 +11°C° 0.2 mm 4 m/s 737 mmHg 72%
    17:00 +10°C° 0.2 mm 4 m/s 737 mmHg 76%
    18:00 +10°C° 0.2 mm 3 m/s 737 mmHg 80%
    19:00 +9°C° 0.2 mm 3 m/s 737 mmHg 84%
    20:00 +8°C° 0.1 mm 2 m/s 737 mmHg 88%
    21:00 +7°C° 0.1 mm 2 m/s 738 mmHg 91%
    22:00 +6°C° 0.1 mm 2 m/s 738 mmHg 95%
    23:00 +6°C° 0.1 mm 2 m/s 738 mmHg 95%
    Arată mai mult